KA2FNK Weather Reports


Display with metric or nautical units.
time (UTC)temp
F
wind
direction
speed
MPH
gust
MPH
rain 1hr
in
rain 24hr
in
rain mn
in
humidity
%
barometer
mb
20260906000653 92 86 0.0 0.0 0.00 0.00 0.00 45 1012.0
20260906000140 92 86 0.0 0.0 0.00 0.00 0.00 45 1012.0
20260905235627 92 86 0.0 0.0 0.00 0.00 0.00 44 1012.1
20260905235114 93 86 0.0 0.0 0.00 0.00 0.00 44 1012.1
20260905234601 93 86 0.0 0.0 0.00 0.00 0.00 43 1012.0
20260905234048 94 86 0.0 0.0 0.00 0.00 0.00 42 1012.0
20260905233535 94 86 0.0 0.0 0.00 0.00 0.00 41 1011.9
20260905233022 95 86 0.0 0.0 0.00 0.00 0.00 41 1011.9
20260905232509 95 86 0.0 0.0 0.00 0.00 0.00 39 1011.9
20260905231956 95 86 0.0 0.0 0.00 0.00 0.00 39 1011.8
20260905231443 95 86 0.0 0.0 0.00 0.00 0.00 38 1011.8
20260905230930 95 86 0.0 0.0 0.00 0.00 0.00 39 1011.8
20260905230417 95 86 0.0 0.0 0.00 0.00 0.00 40 1011.9
20260905225904 95 86 0.0 0.0 0.00 0.00 0.00 39 1011.9
20260905225351 95 86 0.0 0.0 0.00 0.00 0.00 41 1011.8
20260905224838 95 86 0.0 5.0 0.00 0.00 0.00 41 1011.8
20260905224325 95 68 4.0 4.0 0.00 0.00 0.00 39 1011.7
20260905223812 95 20 0.0 0.0 0.00 0.00 0.00 41 1011.8
20260905223259 95 20 0.0 0.0 0.00 0.00 0.00 39 1011.8
20260905222746 95 20 0.0 2.0 0.00 0.00 0.00 39 1011.8
20260905222233 94 20 0.0 0.0 0.00 0.00 0.00 40 1011.9
20260905221720 94 20 0.0 0.0 0.00 0.00 0.00 39 1011.9
20260905221207 94 20 0.0 0.0 0.00 0.00 0.00 40 1012.0
20260905220654 93 20 0.0 3.0 0.00 0.00 0.00 41 1011.9
20260905220141 93 11 0.0 0.0 0.00 0.00 0.00 41 1012.0
20260905215628 93 11 0.0 0.0 0.00 0.00 0.00 42 1012.1
20260905215115 94 360 2.0 7.0 0.00 0.00 0.00 41 1012.1
20260905214602 95 13 0.0 0.0 0.00 0.00 0.00 41 1012.2
20260905214049 96 13 0.0 9.0 0.00 0.00 0.00 37 1012.3
20260905213536 96 86 0.0 0.0 0.00 0.00 0.00 34 1012.3
20260905213023 96 86 0.0 4.0 0.00 0.00 0.00 33 1012.4
20260905212510 96 79 0.0 0.0 0.00 0.00 0.00 36 1012.4
20260905211957 96 79 0.0 0.0 0.00 0.00 0.00 35 1012.5
20260905211444 96 79 0.0 0.0 0.00 0.00 0.00 33 1012.5
20260905210931 97 79 0.0 0.0 0.00 0.00 0.00 34 1012.6
20260905210418 97 79 0.0 0.0 0.00 0.00 0.00 33 1012.6
20260905205905 97 79 0.0 0.0 0.00 0.00 0.00 33 1012.7
20260905205352 97 90 0.0 0.0 0.00 0.00 0.00 35 1012.8
20260905204839 97 90 0.0 0.0 0.00 0.00 0.00 35 1012.7
20260905204326 97 90 0.0 6.0 0.00 0.00 0.00 34 1012.8
20260905203813 97 65 0.0 0.0 0.00 0.00 0.00 34 1012.9
20260905203300 98 65 0.0 0.0 0.00 0.00 0.00 34 1012.9
20260905202747 97 65 0.0 0.0 0.00 0.00 0.00 35 1013.0
20260905202234 97 65 0.0 0.0 0.00 0.00 0.00 36 1013.0
20260905201721 97 65 0.0 0.0 0.00 0.00 0.00 36 1013.1
20260905201208 96 65 0.0 0.0 0.00 0.00 0.00 37 1013.2
20260905200655 95 65 0.0 0.0 0.00 0.00 0.00 40 1013.3
20260905200142 95 65 0.0 0.0 0.00 0.00 0.00 37 1013.4
20260905195629 95 65 0.0 0.0 0.00 0.00 0.00 39 1013.4
20260905195116 95 65 0.0 0.0 0.00 0.00 0.00 38 1013.6
20260905194603 95 65 0.0 0.0 0.00 0.00 0.00 36 1013.6
20260905194050 96 65 0.0 3.0 0.00 0.00 0.00 34 1013.6
20260905193537 97 201 0.0 0.0 0.00 0.00 0.00 35 1013.7
20260905193024 97 201 0.0 0.0 0.00 0.00 0.00 36 1013.7
20260905192511 97 86 0.0 4.0 0.00 0.00 0.00 35 1013.7
20260905191958 97 218 0.0 0.0 0.00 0.00 0.00 34 1013.7
20260905191445 97 218 0.0 0.0 0.00 0.00 0.00 34 1013.8
20260905190932 97 218 0.0 0.0 0.00 0.00 0.00 34 1013.8
20260905190419 97 218 0.0 0.0 0.00 0.00 0.00 34 1013.9
20260905185906 98 218 0.0 0.0 0.00 0.00 0.00 32 1014.0
20260905185353 98 218 0.0 0.0 0.00 0.00 0.00 34 1014.0
20260905184840 98 218 0.0 0.0 0.00 0.00 0.00 34 1014.1
20260905184327 98 218 0.0 3.0 0.00 0.00 0.00 34 1014.1
20260905183814 98 218 0.0 0.0 0.00 0.00 0.00 35 1014.1
20260905183301 97 218 0.0 0.0 0.00 0.00 0.00 34 1014.2
20260905182748 97 218 0.0 0.0 0.00 0.00 0.00 35 1014.3
20260905182235 97 218 0.0 0.0 0.00 0.00 0.00 35 1014.3
20260905181722 96 218 0.0 0.0 0.00 0.00 0.00 37 1014.5
20260905181209 96 218 0.0 0.0 0.00 0.00 0.00 37 1014.5
20260905180656 95 218 0.0 0.0 0.00 0.00 0.00 40 1014.6
20260905180143 96 218 0.0 0.0 0.00 0.00 0.00 39 1014.7
20260905175630 96 218 0.0 0.0 0.00 0.00 0.00 37 1014.7
20260905175117 96 218 0.0 0.0 0.00 0.00 0.00 38 1014.8
20260905174604 96 218 0.0 0.0 0.00 0.00 0.00 39 1014.9
20260905174051 96 218 0.0 0.0 0.00 0.00 0.00 37 1014.8
20260905173538 96 218 0.0 0.0 0.00 0.00 0.00 38 1014.9
20260905173025 95 218 0.0 0.0 0.00 0.00 0.00 39 1015.0
20260905172512 94 218 0.0 0.0 0.00 0.00 0.00 40 1015.0
20260905171959 93 218 0.0 0.0 0.00 0.00 0.00 41 1015.1
20260905171446 94 218 0.0 0.0 0.00 0.00 0.00 41 1015.2
20260905170933 94 218 0.0 0.0 0.00 0.00 0.00 41 1015.3
20260905170420 94 218 0.0 0.0 0.00 0.00 0.00 40 1015.3
20260905165907 94 218 0.0 0.0 0.00 0.00 0.00 44 1015.3
20260905165354 93 218 0.0 0.0 0.00 0.00 0.00 44 1015.4
20260905164841 93 218 0.0 0.0 0.00 0.00 0.00 43 1015.4
20260905164328 94 218 0.0 0.0 0.00 0.00 0.00 44 1015.3
20260905163815 94 218 0.0 0.0 0.00 0.00 0.00 42 1015.3
20260905163302 95 218 0.0 0.0 0.00 0.00 0.00 42 1015.4
20260905162749 94 218 0.0 0.0 0.00 0.00 0.00 43 1015.4
20260905162236 94 218 0.0 0.0 0.00 0.00 0.00 43 1015.3
20260905161723 93 218 0.0 0.0 0.00 0.00 0.00 46 1015.3
20260905161210 92 218 0.0 0.0 0.00 0.00 0.00 46 1015.3
20260905160657 91 218 0.0 0.0 0.00 0.00 0.00 48 1015.2
20260905160144 91 218 0.0 0.0 0.00 0.00 0.00 49 1015.2
20260905155631 90 218 0.0 0.0 0.00 0.00 0.00 50 1015.2
20260905155118 90 218 0.0 0.0 0.00 0.00 0.00 49 1015.2
20260905154605 90 218 0.0 0.0 0.00 0.00 0.00 49 1015.1
20260905154052 89 218 0.0 0.0 0.00 0.00 0.00 50 1015.0
20260905153539 89 218 0.0 0.0 0.00 0.00 0.00 51 1014.9
20260905153026 89 218 0.0 0.0 0.00 0.00 0.00 50 1015.0
20260905152513 89 218 0.0 0.0 0.00 0.00 0.00 51 1014.9
20260905152000 89 218 0.0 0.0 0.00 0.00 0.00 51 1014.9
20260905151447 89 218 0.0 0.0 0.00 0.00 0.00 52 1014.8
20260905150934 88 218 0.0 0.0 0.00 0.00 0.00 51 1014.8
20260905150628 87 218 0.0 0.0 0.00 0.00 0.00 52 1014.8
20260905150421 88 218 0.0 0.0 0.00 0.00 0.00 53 1014.9
20260905150019 87 218 0.0 0.0 0.00 0.00 0.00 52 1014.8
20260905145908 87 218 0.0 0.0 0.00 0.00 0.00 52 1014.8
20260905145355 87 218 0.0 0.0 0.00 0.00 0.00 54 1014.7
20260905144842 87 218 0.0 0.0 0.00 0.00 0.00 55 1014.7
20260905144329 86 218 0.0 0.0 0.00 0.00 0.00 54 1014.7
20260905144035 86 218 0.0 0.0 0.00 0.00 0.00 55 1014.7
20260905143848 86 218 0.0 0.0 0.00 0.00 0.00 55 1014.7
20260905143816 86 218 0.0 0.0 0.00 0.00 0.00 55 1014.7
20260905143602 86 218 0.0 0.0 0.00 0.00 0.00 56 1014.7
20260905143354 86 218 0.0 0.0 0.00 0.00 0.00 56 1014.7
20260905143303 86 218 0.0 0.0 0.00 0.00 0.00 56 1014.7
20260905142750 85 218 0.0 0.0 0.00 0.00 0.00 57 1014.7
20260905142237 84 218 0.0 0.0 0.00 0.00 0.00 58 1014.7
20260905141724 84 218 0.0 0.0 0.00 0.00 0.00 59 1014.6
20260905141211 83 218 0.0 0.0 0.00 0.00 0.00 61 1014.6
20260905140658 83 218 0.0 0.0 0.00 0.00 0.00 61 1014.6
20260905140145 83 218 0.0 0.0 0.00 0.00 0.00 61 1014.6
20260905135632 82 218 0.0 0.0 0.00 0.00 0.00 61 1014.6
20260905135119 82 218 0.0 0.0 0.00 0.00 0.00 64 1014.6
20260905134606 82 218 0.0 0.0 0.00 0.00 0.00 63 1014.6
20260905134053 82 218 0.0 0.0 0.00 0.00 0.00 63 1014.6
20260905133540 81 218 0.0 0.0 0.00 0.00 0.00 64 1014.5
20260905133027 80 218 0.0 0.0 0.00 0.00 0.00 66 1014.3
20260905132514 80 218 0.0 0.0 0.00 0.00 0.00 67 1014.2
20260905132001 79 218 0.0 0.0 0.00 0.00 0.00 69 1014.2
20260905131448 79 218 0.0 0.0 0.00 0.00 0.00 68 1014.2
20260905130935 79 218 0.0 0.0 0.00 0.00 0.00 68 1014.1
20260905130422 79 218 0.0 0.0 0.00 0.00 0.00 68 1014.1
20260905125909 79 218 0.0 0.0 0.00 0.00 0.00 69 1014.0
20260905125356 78 218 0.0 0.0 0.00 0.00 0.00 68 1014.0
20260905124843 79 218 0.0 0.0 0.00 0.00 0.00 68 1013.9
20260905124330 78 218 0.0 0.0 0.00 0.00 0.00 69 1013.9
20260905124026 78 218 0.0 0.0 0.00 0.00 0.00 70 1013.9
20260905123817 78 218 0.0 0.0 0.00 0.00 0.00 70 1013.9
20260905123304 77 218 0.0 0.0 0.00 0.00 0.00 70 1014.0
20260905122751 77 218 0.0 0.0 0.00 0.00 0.00 71 1013.9
20260905122238 77 218 0.0 0.0 0.00 0.00 0.00 71 1013.9
20260905121725 77 218 0.0 0.0 0.00 0.00 0.00 70 1013.8
20260905121212 77 218 0.0 0.0 0.00 0.00 0.00 70 1013.7
20260905120659 77 218 0.0 0.0 0.00 0.00 0.00 71 1013.7
20260905120544 77 218 0.0 0.0 0.00 0.00 0.00 70 1013.4
20260905120146 77 218 0.0 0.0 0.00 0.00 0.00 71 1013.6
20260905115633 77 218 0.0 0.0 0.00 0.00 0.00 71 1013.6
20260905115120 77 218 0.0 0.0 0.00 0.00 0.00 70 1013.4
20260905114607 77 218 0.0 0.0 0.00 0.00 0.00 70 1013.3
20260905114054 77 218 0.0 0.0 0.00 0.00 0.00 70 1013.3
20260905113541 78 218 0.0 0.0 0.00 0.00 0.00 70 1013.3
20260905113028 77 218 0.0 0.0 0.00 0.00 0.00 70 1013.3
20260905112515 77 218 0.0 0.0 0.00 0.00 0.00 71 1013.3
20260905112002 77 218 0.0 0.0 0.00 0.00 0.00 71 1013.3
20260905111449 77 218 0.0 0.0 0.00 0.00 0.00 71 1013.3
20260905110936 77 218 0.0 0.0 0.00 0.00 0.00 72 1013.2
20260905110423 77 218 0.0 0.0 0.00 0.00 0.00 71 1013.2
20260905110237 77 218 0.0 0.0 0.00 0.00 0.00 72 1013.0
20260905105910 77 218 0.0 0.0 0.00 0.00 0.00 72 1013.0
20260905105357 77 218 0.0 0.0 0.00 0.00 0.00 71 1012.9
20260905104844 77 218 0.0 0.0 0.00 0.00 0.00 70 1012.9
20260905104331 77 218 0.0 0.0 0.00 0.00 0.00 70 1012.9
20260905103818 78 218 0.0 0.0 0.00 0.00 0.00 70 1012.9
20260905103305 78 218 0.0 0.0 0.00 0.00 0.00 70 1013.0
20260905102752 78 218 0.0 0.0 0.00 0.00 0.00 69 1013.0
20260905102239 78 218 0.0 0.0 0.00 0.00 0.00 68 1013.0
20260905101726 78 218 0.0 0.0 0.00 0.00 0.00 67 1013.0
20260905101213 78 218 0.0 0.0 0.00 0.00 0.00 67 1013.0
20260905100700 78 218 0.0 0.0 0.00 0.00 0.00 68 1013.0
20260905100147 78 218 0.0 0.0 0.00 0.00 0.00 68 1013.0
20260905095634 78 218 0.0 0.0 0.00 0.00 0.00 68 1013.0
20260905095121 78 218 0.0 0.0 0.00 0.00 0.00 69 1013.0
20260905094608 78 218 0.0 0.0 0.00 0.00 0.00 70 1013.0
20260905094055 78 218 0.0 0.0 0.00 0.00 0.00 70 1013.0
20260905094050 78 218 0.0 0.0 0.00 0.00 0.00 69 1013.0
20260905093542 78 218 0.0 0.0 0.00 0.00 0.00 69 1013.0
20260905093029 78 218 0.0 0.0 0.00 0.00 0.00 68 1013.0
20260905092516 78 218 0.0 0.0 0.00 0.00 0.00 68 1013.0
20260905092003 79 218 0.0 0.0 0.00 0.00 0.00 68 1013.0
20260905091450 79 218 0.0 0.0 0.00 0.00 0.00 68 1013.0
20260905090937 79 218 0.0 0.0 0.00 0.00 0.00 68 1013.0
20260905090424 79 218 0.0 0.0 0.00 0.00 0.00 69 1013.0
20260905090334 78 218 0.0 0.0 0.00 0.00 0.00 67 1013.0
20260905085911 78 218 0.0 0.0 0.00 0.00 0.00 69 1013.0
20260905085358 78 218 0.0 0.0 0.00 0.00 0.00 67 1013.0
20260905085201 78 218 0.0 0.0 0.00 0.00 0.00 66 1013.0
20260905084917 79 218 0.0 0.0 0.00 0.00 0.00 67 1013.0
20260905084845 79 218 0.0 0.0 0.00 0.00 0.00 66 1012.9
20260905084332 78 218 0.0 0.0 0.00 0.00 0.00 66 1013.0
20260905083819 78 218 0.0 0.0 0.00 0.00 0.00 66 1013.0
20260905083306 79 218 0.0 0.0 0.00 0.00 0.00 67 1013.0
20260905082920 79 218 0.0 0.0 0.00 0.00 0.00 67 1013.0
20260905082753 79 218 0.0 0.0 0.00 0.00 0.00 67 1013.0
20260905082240 79 218 0.0 0.0 0.00 0.00 0.00 66 1012.9
20260905081727 79 218 0.0 0.0 0.00 0.00 0.00 65 1013.0
20260905081214 79 218 0.0 0.0 0.00 0.00 0.00 65 1013.0
20260905081152 80 218 0.0 0.0 0.00 0.00 0.00 66 1013.0
20260905081123 80 218 0.0 0.0 0.00 0.00 0.00 65 1013.0
20260905081115 80 218 0.0 0.0 0.00 0.00 0.00 64 1013.0
20260905080701 80 218 0.0 0.0 0.00 0.00 0.00 66 1013.0
20260905080148 80 218 0.0 0.0 0.00 0.00 0.00 65 1013.0
20260905075836 80 218 0.0 0.0 0.00 0.00 0.00 63 1012.9
20260905075635 80 218 0.0 0.0 0.00 0.00 0.00 64 1013.0
20260905075122 80 218 0.0 0.0 0.00 0.00 0.00 64 1013.0
20260905074609 80 218 0.0 0.0 0.00 0.00 0.00 64 1013.0
20260905074407 80 218 0.0 0.0 0.00 0.00 0.00 63 1012.9
20260905074056 80 218 0.0 0.0 0.00 0.00 0.00 63 1012.9
20260905073543 80 218 0.0 0.0 0.00 0.00 0.00 63 1012.9
20260905073030 80 218 0.0 0.0 0.00 0.00 0.00 63 1012.9
20260905072517 80 218 0.0 0.0 0.00 0.00 0.00 63 1013.0
20260905072004 80 218 0.0 0.0 0.00 0.00 0.00 63 1012.9
20260905071742 81 218 0.0 0.0 0.00 0.00 0.00 64 1013.0
20260905071451 80 218 0.0 0.0 0.00 0.00 0.00 63 1012.9
20260905070938 80 218 0.0 0.0 0.00 0.00 0.00 63 1013.0
20260905070725 81 218 0.0 0.0 0.00 0.00 0.00 64 1013.0
20260905070425 81 218 0.0 0.0 0.00 0.00 0.00 64 1013.0
20260905065912 81 218 0.0 0.0 0.00 0.00 0.00 62 1013.0
20260905065710 81 218 0.0 0.0 0.00 0.00 0.00 63 1013.1
20260905065359 81 218 0.0 0.0 0.00 0.00 0.00 63 1013.1
20260905064846 81 218 0.0 0.0 0.00 0.00 0.00 63 1013.1
20260905064333 81 218 0.0 0.0 0.00 0.00 0.00 63 1013.2
20260905063820 82 218 0.0 0.0 0.00 0.00 0.00 62 1013.2
20260905063307 82 218 0.0 0.0 0.00 0.00 0.00 62 1013.2
20260905062754 82 218 0.0 0.0 0.00 0.00 0.00 62 1013.2
20260905062241 82 218 0.0 0.0 0.00 0.00 0.00 61 1013.2
20260905061728 82 218 0.0 0.0 0.00 0.00 0.00 62 1013.2
20260905061215 82 218 0.0 0.0 0.00 0.00 0.00 62 1013.2
20260905060702 82 218 0.0 0.0 0.00 0.00 0.00 62 1013.2
20260905060352 82 218 0.0 0.0 0.00 0.00 0.00 62 1013.2
20260905060149 82 218 0.0 0.0 0.00 0.00 0.00 62 1013.2
20260905055636 82 218 0.0 0.0 0.00 0.00 0.00 62 1013.2
20260905055123 83 218 0.0 0.0 0.00 0.00 0.00 61 1013.2
20260905054610 83 218 0.0 0.0 0.00 0.00 0.00 61 1013.2
20260905054341 83 218 0.0 0.0 0.00 0.00 0.00 61 1013.2
20260905054057 83 218 0.0 0.0 0.00 0.00 0.00 61 1013.2
20260905053544 83 218 0.0 0.0 0.00 0.00 0.00 60 1013.1
20260905053031 83 218 0.0 0.0 0.00 0.00 0.00 61 1013.1
20260905052518 82 218 0.0 0.0 0.00 0.00 0.00 61 1013.1
20260905052005 82 218 0.0 0.0 0.00 0.00 0.00 61 1013.1
20260905051452 82 218 0.0 0.0 0.00 0.00 0.00 61 1013.2
20260905050939 82 218 0.0 0.0 0.00 0.00 0.00 61 1013.2
20260905050426 82 218 0.0 0.0 0.00 0.00 0.00 62 1013.2
20260905045913 82 218 0.0 0.0 0.00 0.00 0.00 63 1013.3
20260905045400 82 218 0.0 0.0 0.00 0.00 0.00 62 1013.2
20260905044847 82 218 0.0 0.0 0.00 0.00 0.00 62 1013.1
20260905044334 83 218 0.0 0.0 0.00 0.00 0.00 61 1013.1
20260905043823 83 218 0.0 0.0 0.00 0.00 0.00 62 1013.1
20260905043308 83 218 0.0 0.0 0.00 0.00 0.00 61 1013.1
20260905042755 83 218 0.0 0.0 0.00 0.00 0.00 60 1013.2
20260905042242 83 218 0.0 0.0 0.00 0.00 0.00 61 1013.1
20260905041729 83 218 0.0 0.0 0.00 0.00 0.00 62 1013.1
20260905041216 83 218 0.0 0.0 0.00 0.00 0.00 62 1013.2
20260905040703 83 218 0.0 0.0 0.00 0.00 0.00 61 1013.1
20260905040150 83 218 0.0 0.0 0.00 0.00 0.00 60 1013.2
20260905035637 83 218 0.0 0.0 0.00 0.00 0.00 60 1013.2
20260905035124 83 218 0.0 0.0 0.00 0.00 0.00 61 1013.2
20260905034611 83 218 0.0 0.0 0.00 0.00 0.00 61 1013.2
20260905034058 83 218 0.0 0.0 0.00 0.00 0.00 61 1013.2
20260905033545 83 218 0.0 0.0 0.00 0.00 0.00 61 1013.2
20260905033032 84 218 0.0 0.0 0.00 0.00 0.00 60 1013.1
20260905032519 84 218 0.0 0.0 0.00 0.00 0.00 60 1013.1
20260905032006 84 218 0.0 0.0 0.00 0.00 0.00 59 1013.1
20260905031453 84 218 0.0 0.0 0.00 0.00 0.00 58 1013.0
20260905030940 84 218 0.0 0.0 0.00 0.00 0.00 58 1013.1
20260905030427 85 218 0.0 0.0 0.00 0.00 0.00 57 1013.0
20260905025914 85 218 0.0 0.0 0.00 0.00 0.00 58 1013.0
20260905025401 85 218 0.0 0.0 0.00 0.00 0.00 57 1013.0
20260905024848 85 218 0.0 0.0 0.00 0.00 0.00 56 1012.9
20260905024335 85 218 0.0 0.0 0.00 0.00 0.00 56 1012.9
20260905023822 86 218 0.0 0.0 0.00 0.00 0.00 56 1012.8
20260905023309 86 218 0.0 0.0 0.00 0.00 0.00 55 1012.8
20260905022756 86 218 0.0 0.0 0.00 0.00 0.00 54 1012.7
20260905022243 86 218 0.0 0.0 0.00 0.00 0.00 54 1012.6
20260905021730 85 218 0.0 0.0 0.00 0.00 0.00 55 1012.6
20260905021217 86 218 0.0 0.0 0.00 0.00 0.00 55 1012.6
20260905020704 86 218 0.0 0.0 0.00 0.00 0.00 53 1012.5
20260905020151 86 218 0.0 0.0 0.00 0.00 0.00 52 1012.4
20260905015638 86 218 0.0 0.0 0.00 0.00 0.00 53 1012.3
20260905015125 86 218 0.0 0.0 0.00 0.00 0.00 52 1012.2
20260905014612 87 218 0.0 0.0 0.00 0.00 0.00 51 1012.2
20260905014059 87 218 0.0 0.0 0.00 0.00 0.00 51 1012.2
20260905013546 87 218 0.0 0.0 0.00 0.00 0.00 50 1012.1
20260905013033 88 218 0.0 0.0 0.00 0.00 0.00 50 1012.1
20260905012520 88 218 0.0 0.0 0.00 0.00 0.00 49 1011.9
20260905012007 89 218 0.0 0.0 0.00 0.00 0.00 48 1011.9
20260905011454 89 218 0.0 0.0 0.00 0.00 0.00 47 1011.9
20260905010941 90 218 0.0 0.0 0.00 0.00 0.00 47 1011.8
20260905010428 90 218 0.0 0.0 0.00 0.00 0.00 47 1011.8
20260905005915 90 218 0.0 0.0 0.00 0.00 0.00 47 1011.7
20260905005402 91 218 0.0 0.0 0.00 0.00 0.00 45 1011.8
20260905004849 91 218 0.0 0.0 0.00 0.00 0.00 44 1011.7
20260905004336 92 218 0.0 0.0 0.00 0.00 0.00 43 1011.7
20260905003823 92 218 0.0 0.0 0.00 0.00 0.00 42 1011.7
20260905003310 93 218 0.0 0.0 0.00 0.00 0.00 41 1011.8
20260905002757 93 218 0.0 0.0 0.00 0.00 0.00 41 1011.8
20260905002244 93 218 0.0 0.0 0.00 0.00 0.00 40 1011.8
20260905001731 93 218 0.0 0.0 0.00 0.00 0.00 39 1011.8
20260905001218 93 218 0.0 0.0 0.00 0.00 0.00 40 1011.9